Weather History for KRAP - April, 2012

Change the Weather History Date:

Wednesday, April 4, 2012

  Actual Average Record
Temperature  
Mean Temperature 49 °F 41 °F  
Max Temperature 67 °F 54 °F 82 °F (1992)
Min Temperature 30 °F 28 °F 10 °F (1968)
Degree Days  
Heating Degree Days 16 24  
Month to date heating degree days 57 97  
Since 1 July heating degree days 5450 6225  
Cooling Degree Days 0 0  
Month to date cooling degree days 1 0  
Year to date cooling degree days 1 0  
Moisture  
Dew Point 25 °F    
Average Humidity 44    
Maximum Humidity 62    
Minimum Humidity 26    
Precipitation  
Precipitation 0.00 in 0.04 in 1.04 in (2009)
Month to date precipitation 0.00 0.15  
Year to date precipitation 0.74 1.82  
Snow  
Snow 0.00 in 0.30 in 12.40 in (2009)
Month to date snowfall 0.0 1.2  
Since 1 July snowfall 24.7 33.3  
Snow Depth 0.00 in    
Sea Level Pressure  
Sea Level Pressure 29.91 in    
Wind  
Wind Speed 13 mph (SSE)    
Max Wind Speed 26 mph    
Max Gust Speed 35 mph    
Visibility 10 miles    
Events      
T = Trace of Precipitation, MM = Missing Value Source: NWS Daily Summary

Daily Weather History Graph

Daily Weather History Graph

Search for Another Location

Airport or City:

Trip Planner

Search our weather history database for the weather conditions in past years. The results will help you decide how hot, cold, wet, or windy it might be!

Date:

Astronomy

Apr. 04, 2012 Rise Set
Actual Time 6:27 AM MDT 7:23 PM MDT
Civil Twilight 5:57 AM MDT 7:53 PM MDT
Nautical Twilight 5:22 AM MDT 8:28 PM MDT
Astronomical Twilight 4:46 AM MDT 9:04 PM MDT
Moon 5:16 PM MDT (4/4) 4:54 AM MDT (4/4)
Length of Visible Light 13h 55m
Length of Day
12h 56m
Waxing Gibbous, 94% of the Moon is Illuminated
Apr 4
Waxing Gibbous
Apr 6
Full
Apr 13
Last Quarter
Apr 21
New
Apr 29
First Quarter

Hourly Weather History & Observations

Time (MDT) Temp. Windchill Dew Point Humidity Pressure Visibility Wind Dir Wind Speed Gust Speed Precip Events Conditions
12:52 AM 36.0 °F - 15.1 °F 43% 30.09 in 10.0 mi Calm Calm - N/A   Clear
1:52 AM 35.1 °F 32.2 °F 16.0 °F 46% 30.08 in 10.0 mi SE 3.5 mph - N/A   Clear
2:52 AM 35.6 °F - 15.8 °F 44% 30.03 in 10.0 mi Calm Calm - N/A   Clear
3:52 AM 33.1 °F - 16.0 °F 50% 30.04 in 10.0 mi Calm Calm - N/A   Clear
4:52 AM 30.9 °F - 16.0 °F 54% 30.04 in 10.0 mi Calm Calm - N/A   Clear
5:52 AM 30.2 °F 26.7 °F 15.8 °F 55% 29.99 in 10.0 mi SSE 3.5 mph - N/A   Clear
6:52 AM 32.0 °F 26.4 °F 18.0 °F 56% 30.03 in 10.0 mi SE 5.8 mph - N/A   Clear
7:52 AM 37.9 °F 33.5 °F 19.9 °F 48% 30.03 in 10.0 mi SE 5.8 mph - N/A   Clear
8:52 AM 48.9 °F - 23.0 °F 36% 30.01 in 10.0 mi South 18.4 mph 21.9 mph N/A   Partly Cloudy
9:52 AM 51.1 °F - 23.0 °F 33% 30.00 in 10.0 mi SSE 20.7 mph - N/A   Scattered Clouds
10:52 AM 55.0 °F - 24.1 °F 30% 29.96 in 10.0 mi South 23.0 mph 26.5 mph N/A   Partly Cloudy
11:52 AM 59.0 °F - 26.1 °F 28% 29.92 in 10.0 mi South 24.2 mph 31.1 mph N/A   Clear
12:52 PM 62.1 °F - 28.0 °F 28% 29.88 in 10.0 mi South 26.5 mph 33.4 mph N/A   Clear
1:52 PM 64.0 °F - 32.0 °F 30% 29.84 in 10.0 mi South 25.3 mph 31.1 mph N/A   Clear
2:52 PM 64.9 °F - 30.9 °F 28% 29.81 in 10.0 mi SSE 20.7 mph 29.9 mph N/A   Clear
3:52 PM 66.2 °F - 32.0 °F 28% 29.78 in 10.0 mi South 20.7 mph 28.8 mph N/A   Clear
4:52 PM 66.0 °F - 30.9 °F 27% 29.77 in 10.0 mi SSE 17.3 mph 31.1 mph N/A   Clear
5:52 PM 62.1 °F - 30.9 °F 31% 29.78 in 10.0 mi SSE 18.4 mph - N/A   Clear
6:52 PM 59.0 °F - 30.9 °F 35% 29.78 in 10.0 mi SE 13.8 mph - N/A   Clear
7:52 PM 52.0 °F - 30.9 °F 45% 29.79 in 10.0 mi SE 6.9 mph - N/A   Clear
8:52 PM 50.0 °F - 30.0 °F 46% 29.79 in 10.0 mi SE 11.5 mph - N/A   Clear
9:52 PM 46.9 °F - 28.9 °F 50% 29.81 in 10.0 mi SSE 11.5 mph - N/A   Clear
10:52 PM 45.0 °F 39.3 °F 28.9 °F 53% 29.80 in 10.0 mi South 11.5 mph - N/A   Clear
11:52 PM 43.0 °F 36.4 °F 30.0 °F 60% 29.80 in 10.0 mi South 12.7 mph - N/A   Clear